Location: Toronto
(43.6667°N, 79.4167°W)
Time: 11:42:19
(UTC-04:00)

X-37B - Pass Details

Date: 19 June 2021
Orbit: 383 x 392 km, 45.0° (Epoch: 01 July)

Event Time Altitude Azimuth Distance (km) Brightness Sun altitude
Exits shadow 03:33:39 14° 283° (WNW) 1,195 2.9 -16.1°
Maximum altitude 03:36:17 72° 8° (N) 408 0.8 -15.9°
Drops below altitude 10° 03:39:26 10° 93° (E) 1,407 3.8 -15.6°
Sets 03:41:31 0° 95° (E) 2,262 4.9 -15.4°
